Weather History for KLHQ - February, 2013

Change the Weather History Date:

Thursday, February 28, 2013

  Actual Average Record
Temperature  
Mean Temperature 34 °F -  
Max Temperature 36 °F 41 °F 68 °F (1939)
Min Temperature 32 °F 22 °F -4 °F (2015)
Degree Days  
Heating Degree Days 31    
Moisture  
Dew Point 30 °F    
Average Humidity 86    
Maximum Humidity 93    
Minimum Humidity 81    
Precipitation  
Precipitation 0.11 in - - ()
Sea Level Pressure  
Sea Level Pressure 29.75 in    
Wind  
Wind Speed 10 mph (West)    
Max Wind Speed 15 mph    
Max Gust Speed 23 mph    
Visibility 4 miles    
Events Rain , Snow    
Averages and records for this station are not official NWS values.
T = Trace of Precipitation, MM = Missing Value Source: NWS Daily Summary

Daily Weather History Graph

Daily Weather History Graph

Search for Another Location

Airport or City:

Trip Planner

Search our weather history database for the weather conditions in past years. The results will help you decide how hot, cold, wet, or windy it might be!

Date:

Astronomy

Feb. 28, 2013 Rise Set
Actual Time 7:04 AM EST 6:21 PM EST
Civil Twilight 6:37 AM EST 6:49 PM EST
Nautical Twilight 6:06 AM EST 7:20 PM EST
Astronomical Twilight 5:35 AM EST 7:51 PM EST
Moon 9:47 PM EST (2/28) 8:14 AM EST (2/28)
Length of Visible Light 12h 11m
Length of Day
11h 17m
Waning Gibbous, 91% of the Moon is Illuminated
Feb 28
Waning Gibbous
Mar 4
Last Quarter
Mar 11
New
Mar 19
First Quarter
Mar 27
Full

Hourly Weather History & Observations

Time (EST) Temp. Windchill Dew Point Humidity Pressure Visibility Wind Dir Wind Speed Gust Speed Precip Events Conditions
12:32 AM 33.8 °F 24.3 °F 28.4 °F 81% 29.67 in 10.0 mi WSW 13.8 mph 23.0 mph N/A   Overcast
12:53 AM 33.1 °F 23.4 °F 28.9 °F 85% 29.68 in 8.0 mi WSW 13.8 mph 21.9 mph N/A   Overcast
1:22 AM 33.8 °F 25.8 °F 28.4 °F 81% 29.67 in 8.0 mi WSW 10.4 mph - 0.00 in   Overcast
1:53 AM 33.1 °F 25.5 °F 28.9 °F 85% 29.68 in 7.0 mi WSW 9.2 mph - 0.00 in Snow Light Snow
2:04 AM 33.8 °F 28.6 °F 28.4 °F 81% 29.67 in 2.5 mi WNW 5.8 mph - 0.00 in Snow Light Snow
2:19 AM 33.8 °F 27.0 °F 28.4 °F 81% 29.66 in 3.0 mi West 8.1 mph - 0.01 in Snow Light Snow
2:48 AM 33.8 °F 25.8 °F 28.4 °F 81% 29.66 in 9.0 mi WSW 10.4 mph - 0.02 in Snow Light Snow
2:53 AM 33.1 °F 25.5 °F 28.9 °F 85% 29.68 in 9.0 mi West 9.2 mph - 0.02 in Snow Light Snow
3:04 AM 33.8 °F 25.3 °F 28.4 °F 81% 29.66 in 9.0 mi WSW 11.5 mph - 0.00 in   Overcast
3:14 AM 33.8 °F 27.0 °F 28.4 °F 81% 29.66 in 4.0 mi West 8.1 mph 17.3 mph 0.00 in Snow Light Snow
3:53 AM 32.0 °F 23.6 °F 28.0 °F 85% 29.68 in 5.0 mi West 10.4 mph - 0.00 in Snow Light Snow
4:13 AM 32.0 °F 23.6 °F 28.4 °F 87% 29.66 in 4.0 mi WSW 10.4 mph - 0.00 in Snow Light Snow
4:16 AM 32.0 °F 23.0 °F 28.4 °F 87% 29.66 in 2.5 mi West 11.5 mph - 0.00 in Snow Light Snow
4:27 AM 32.0 °F 24.8 °F 28.4 °F 87% 29.66 in 2.5 mi WSW 8.1 mph - 0.00 in Snow Light Snow
4:38 AM 32.0 °F 22.5 °F 28.4 °F 87% 29.66 in 4.0 mi WSW 12.7 mph 18.4 mph 0.00 in Snow Light Snow
4:53 AM 32.0 °F 23.6 °F 28.0 °F 85% 29.68 in 4.0 mi WSW 10.4 mph - 0.00 in Snow Light Snow
5:11 AM 32.0 °F 23.6 °F 28.4 °F 87% 29.66 in 2.5 mi WSW 10.4 mph - 0.00 in Snow Light Snow
5:26 AM 32.0 °F 24.2 °F 28.4 °F 87% 29.67 in 2.5 mi WSW 9.2 mph - 0.00 in Snow Light Snow
5:34 AM 32.0 °F 23.6 °F 28.4 °F 87% 29.67 in 3.0 mi WSW 10.4 mph - 0.00 in Snow Light Snow
5:53 AM 32.0 °F 23.6 °F 28.0 °F 85% 29.69 in 5.0 mi WSW 10.4 mph - 0.00 in Snow Light Snow
6:53 AM 32.0 °F 22.1 °F 28.0 °F 85% 29.69 in 4.0 mi WSW 13.8 mph - 0.00 in Snow Light Snow
7:24 AM 32.0 °F 22.5 °F 28.4 °F 87% 29.67 in 2.0 mi WSW 12.7 mph - 0.00 in Snow Light Snow
7:45 AM 32.0 °F 24.2 °F 28.4 °F 87% 29.68 in 2.0 mi WSW 9.2 mph 18.4 mph 0.00 in Snow Light Snow
7:50 AM 32.0 °F 23.6 °F 28.4 °F 87% 29.68 in 2.5 mi WSW 10.4 mph - 0.00 in Snow Light Snow
7:53 AM 32.0 °F 23.6 °F 28.0 °F 85% 29.70 in 2.0 mi WSW 10.4 mph - 0.00 in Snow Light Snow
8:09 AM 32.0 °F 24.2 °F 28.4 °F 87% 29.68 in 1.8 mi WSW 9.2 mph 18.4 mph 0.00 in Snow Light Snow
8:40 AM 32.0 °F 21.6 °F 28.4 °F 87% 29.69 in 2.0 mi WSW 15.0 mph 20.7 mph 0.00 in Snow Light Snow
9:39 AM 32.0 °F 22.5 °F 28.4 °F 87% 29.69 in 3.0 mi West 12.7 mph - 0.00 in Snow Light Snow
9:53 AM 33.1 °F 23.4 °F 28.9 °F 85% 29.72 in 3.0 mi West 13.8 mph 20.7 mph 0.00 in Snow Light Snow
10:05 AM 33.8 °F 25.3 °F 28.4 °F 81% 29.70 in 2.0 mi West 11.5 mph - 0.00 in Snow Light Snow
10:14 AM 33.8 °F 25.3 °F 28.4 °F 81% 29.70 in 1.5 mi West 11.5 mph - 0.00 in Snow Light Snow
10:38 AM 33.8 °F 23.9 °F 28.4 °F 81% 29.70 in 2.5 mi West 15.0 mph - 0.00 in Snow Light Snow
10:48 AM 33.8 °F 25.8 °F 28.4 °F 81% 29.70 in 1.8 mi West 10.4 mph 19.6 mph 0.00 in Snow Light Snow
10:53 AM 33.1 °F 24.4 °F 30.0 °F 89% 29.73 in 1.8 mi West 11.5 mph - 0.00 in Snow Light Snow
11:01 AM 33.8 °F 25.3 °F 30.2 °F 87% 29.70 in 2.5 mi West 11.5 mph - 0.00 in Snow Light Snow
11:12 AM 33.8 °F 25.8 °F 30.2 °F 87% 29.71 in 2.0 mi West 10.4 mph - 0.00 in Snow Light Snow
11:28 AM 33.8 °F 24.8 °F 30.2 °F 87% 29.71 in 1.8 mi West 12.7 mph - 0.00 in Snow Light Snow
11:42 AM 33.8 °F 24.3 °F 30.2 °F 87% 29.71 in 1.0 mi West 13.8 mph 21.9 mph 0.01 in Snow Light Snow
11:53 AM 34.0 °F 25.0 °F 30.9 °F 89% 29.74 in 1.2 mi West 12.7 mph - 0.01 in Snow Light Snow
12:04 PM 33.8 °F 25.8 °F 30.2 °F 87% 29.72 in 2.5 mi West 10.4 mph - 0.00 in Snow Light Snow
12:12 PM 33.8 °F 25.3 °F 30.2 °F 87% 29.72 in 4.0 mi West 11.5 mph 18.4 mph 0.00 in Snow Light Snow
12:45 PM 35.6 °F 28.0 °F 32.0 °F 87% 29.72 in 6.0 mi West 10.4 mph - 0.00 in   Overcast
12:53 PM 36.0 °F 28.0 °F 33.1 °F 89% 29.74 in 6.0 mi West 11.5 mph - 0.00 in   Overcast
1:24 PM 35.6 °F 28.6 °F 32.0 °F 87% 29.72 in 4.0 mi NW 9.2 mph 17.3 mph 0.00 in   Overcast
1:53 PM 36.0 °F 29.6 °F 32.0 °F 86% 29.75 in 6.0 mi WNW 8.1 mph - 0.01 in   Overcast
2:53 PM 36.0 °F 29.0 °F 32.0 °F 86% 29.77 in 6.0 mi NW 9.2 mph - 0.00 in   Overcast
4:42 PM 35.6 °F 29.2 °F 32.0 °F 87% 29.79 in 4.0 mi NW 8.1 mph - N/A   Overcast
4:53 PM 36.0 °F 30.3 °F 32.0 °F 86% 29.81 in 4.0 mi WNW 6.9 mph - N/A   Overcast
5:02 PM 35.6 °F 30.7 °F 32.0 °F 87% 29.80 in 8.0 mi WNW 5.8 mph - N/A   Overcast
5:53 PM 36.0 °F 30.3 °F 32.0 °F 86% 29.85 in 10.0 mi West 6.9 mph - N/A   Overcast
6:17 PM 35.6 °F 29.2 °F 32.0 °F 87% 29.83 in 2.0 mi West 8.1 mph - N/A   Overcast
6:27 PM 35.6 °F 29.9 °F 32.0 °F 87% 29.84 in 3.0 mi WNW 6.9 mph - N/A   Overcast
6:32 PM 35.6 °F 29.9 °F 33.8 °F 93% 29.84 in 4.0 mi West 6.9 mph - N/A   Overcast
6:42 PM 35.6 °F 28.6 °F 33.8 °F 93% 29.85 in 3.0 mi West 9.2 mph - 0.00 in   Overcast
6:53 PM 35.1 °F 28.6 °F 32.0 °F 89% 29.88 in 6.0 mi WNW 8.1 mph - 0.00 in   Overcast
7:05 PM 35.6 °F 30.7 °F 32.0 °F 87% 29.86 in 5.0 mi WNW 5.8 mph - 0.00 in Rain Light Rain
7:21 PM 35.6 °F 30.7 °F 32.0 °F 87% 29.87 in 7.0 mi WNW 5.8 mph - 0.01 in   Overcast
7:53 PM 35.1 °F 27.9 °F 32.0 °F 89% 29.90 in 9.0 mi WNW 9.2 mph - 0.01 in   Overcast
8:25 PM 33.8 °F 27.0 °F 30.2 °F 87% 29.88 in 2.0 mi NNW 8.1 mph - 0.01 in Snow Light Snow
8:27 PM 33.8 °F 27.0 °F 30.2 °F 87% 29.88 in 1.8 mi North 8.1 mph - 0.01 in Snow Light Snow
8:34 PM 33.8 °F 26.4 °F 30.2 °F 87% 29.88 in 1.0 mi NNW 9.2 mph - 0.04 in Snow Light Snow
8:44 PM 33.8 °F 27.0 °F 30.2 °F 87% 29.88 in 1.2 mi NNW 8.1 mph - 0.06 in Snow Light Snow
8:49 PM 33.8 °F 27.0 °F 30.2 °F 87% 29.88 in 2.5 mi NNW 8.1 mph - 0.06 in Snow Light Snow
8:53 PM 33.1 °F 26.1 °F 30.9 °F 92% 29.91 in 5.0 mi NNW 8.1 mph - 0.06 in Snow Light Snow
9:24 PM 33.8 °F 28.6 °F 30.2 °F 87% 29.89 in 4.0 mi NNW 5.8 mph - N/A   Overcast
9:53 PM 34.0 °F 31.0 °F 32.0 °F 92% 29.92 in 4.0 mi NNW 3.5 mph - 0.00 in   Overcast
10:20 PM 33.8 °F 27.7 °F 30.2 °F 87% 29.90 in 8.0 mi NNW 6.9 mph - 0.00 in   Overcast
10:27 PM 33.8 °F 27.7 °F 30.2 °F 87% 29.90 in 6.0 mi NNW 6.9 mph - 0.00 in Snow Light Snow
10:34 PM 33.8 °F 27.0 °F 30.2 °F 87% 29.90 in 7.0 mi NNW 8.1 mph - 0.00 in Snow Light Snow
11:00 PM 33.8 °F 28.6 °F 30.2 °F 87% 29.90 in 10.0 mi NNW 5.8 mph - N/A   Overcast
11:53 PM 33.1 °F 30.0 °F 30.0 °F 89% 29.92 in 10.0 mi NNW 3.5 mph - N/A   Overcast